Change the Weather History Date:

Sunday, November 3, 2013

  Actual Average Record
Temperature  
Mean Temperature 30 °F 41 °F  
Max Temperature 37 °F 50 °F 71 °F (1990)
Min Temperature 22 °F 32 °F 6 °F (2002)
Degree Days  
Heating Degree Days 35 24  
Month to date heating degree days 61 71  
Since 1 July heating degree days 880 858  
Cooling Degree Days 0 0  
Month to date cooling degree days 0  
Year to date cooling degree days 433  
Moisture  
Dew Point 16 °F    
Average Humidity 58    
Maximum Humidity 81    
Minimum Humidity 35    
Precipitation  
Precipitation 0.00 in 0.13 in 2.15 in (1927)
Month to date precipitation 0.53 0.37  
Year to date precipitation 31.39 33.39  
Sea Level Pressure  
Sea Level Pressure 30.20 in    
Wind  
Wind Speed - (North)    
Max Wind Speed -    
Max Gust Speed -    
T = Trace of Precipitation, MM = Missing Value Source: NWS Daily Summary

Daily Weather History Graph

Daily Weather History Graph

Search for Another Location

Airport or City:

Trip Planner

Search our weather history database for the weather conditions in past years. The results will help you decide how hot, cold, wet, or windy it might be!

Date:

Astronomy

Nov. 03, 2013 Rise Set
Actual Time 6:28 AM EST 4:34 PM EST
Civil Twilight 5:57 AM EST 5:04 PM EST
Nautical Twilight 5:23 AM EST 5:39 PM EST
Astronomical Twilight 4:49 AM EST 6:13 PM EST
Moon 6:29 AM EST 4:45 PM EST
Length of Visible Light 11h 06m
Length of Day
10h 06m
New Moon, 0% of the Moon is Illuminated
Nov 3
New Moon
Nov 10
First Quarter
Nov 17
Full
Nov 25
Last Quarter
Dec 2
New

Hourly Weather History & Observations

Time (EST) Temp. Dew Point Humidity Pressure Visibility Wind Dir Wind Speed Gust Speed Precip Events Conditions
12:54 AM 37.0 °F 28.0 °F 70% 29.88 in - North - - N/A   Unknown
1:54 AM 34.0 °F 25.0 °F 70% 29.91 in - North - - N/A   Unknown
1:54 AM 33.1 °F 21.9 °F 64% 29.94 in - North - - N/A   Unknown
2:54 AM 30.9 °F 19.9 °F 64% 29.97 in - North - - N/A   Unknown
3:54 AM 30.0 °F 18.0 °F 61% 30.00 in - North - - N/A   Unknown
4:54 AM 30.0 °F 17.1 °F 59% 30.05 in - North - - N/A   Unknown
5:54 AM 28.9 °F 16.0 °F 58% 30.09 in - North - - N/A   Unknown
6:54 AM 28.9 °F 16.0 °F 58% 30.13 in - North - - N/A   Unknown
7:54 AM 28.9 °F 17.1 °F 61% 30.16 in - North - - N/A   Unknown
8:54 AM 30.0 °F 16.0 °F 56% 30.18 in - North - - N/A   Unknown
9:54 AM 32.0 °F 16.0 °F 52% 30.19 in - North - - N/A   Unknown
10:54 AM 34.0 °F 15.1 °F 46% 30.20 in - North - - N/A   Unknown
11:54 AM 35.1 °F 12.9 °F 40% 30.20 in - North - - N/A   Unknown
12:54 PM 36.0 °F 12.9 °F 39% 30.20 in - North - - N/A   Unknown
1:54 PM 36.0 °F 10.9 °F 36% 30.23 in - North - - N/A   Unknown
2:54 PM 36.0 °F 10.0 °F 34% 30.26 in - North - - N/A   Unknown
3:54 PM 35.1 °F 12.0 °F 39% 30.28 in - North - - N/A   Unknown
4:54 PM 33.1 °F 12.9 °F 43% 30.32 in - North - - N/A   Unknown
5:54 PM 32.0 °F 12.9 °F 45% 30.36 in - North - - N/A   Unknown
6:54 PM 28.9 °F 15.1 °F 56% 30.39 in - North - - N/A   Unknown
7:54 PM 28.0 °F 17.1 °F 63% 30.41 in - North - - N/A   Unknown
8:54 PM 26.1 °F 18.0 °F 71% 30.43 in - North - - N/A   Unknown
9:54 PM 25.0 °F 18.0 °F 75% 30.46 in - North - - N/A   Unknown
10:54 PM 23.0 °F 17.1 °F 78% 30.47 in - North - - N/A   Unknown